Starlink 32751

operational
NORAD ID: 62753 Int'l Des: 2025-014 Owner: SPXS Country: US Constellation: starlink
LEOCIRCULAR

About Starlink 32751

Description loading...

Live Position

Loading 3D Globe...

Upcoming Passes

Altitude History

Altitude vs Time

uPlot chart will show altitude changes over time

Two-Line Element Set

1 62753U 25014U 25258.19192241 .00037143 00000-0 13512-2 0 9998
2 62753 43.0040 65.8204 0002150 277.7583 82.3024 15.27610225 36412
Epoch: Sep 15, 2025 • Age: 23 hours

Current Status

Altitude 494.5 km
Velocity 7.62 km/s
Sub-Earth Point -42.49°S, 93°W
Launch Date Jan 21, 2025
Age 0.6 years
Type internet

Technical Details

Classification Payload
Mass 730.00 kg
Dry Mass 700.00 kg
Total Mass 730.00 kg
Length 0.30 m
Diameter 4.10 m
Span 29.00 m
Shape Box + pan
Manufacturer SPXS
Bus Type Starlink V2M
Phase Status In Orbit
Owner/State SPXS/US

Large Constellations

Loading constellations...